SP8NFE-1 Weather Reports


Display with metric or nautical units.
time (UTC)temp
F
wind
direction
speed
MPH
gust
MPH
rain 1hr
in
rain 24hr
in
rain mn
in
humidity
%
barometer
mb
20260507191501 57 68 0.0 0.0 0.01 0.02 0.00 100
20260507191001 57 68 0.0 0.0 0.01 0.02 0.00 100
20260507190501 57 68 0.0 0.0 0.00 0.01 0.01 100
20260507190003 57 68 0.0 0.0 0.00 0.01 0.01 100
20260507185502 57 68 0.0 0.0 0.00 0.01 0.01 100
20260507185002 57 68 0.0 0.0 0.00 0.01 0.01 100
20260507184502 57 68 0.0 0.0 0.00 0.01 0.01 100
20260507184002 57 68 0.0 0.0 0.00 0.01 0.01 100
20260507183502 57 68 0.0 0.0 0.01 0.01 0.01 100
20260507183002 56 68 0.0 0.0 0.01 0.01 0.01 100
20260507182502 57 68 0.0 0.0 0.01 0.01 0.01 100
20260507182002 57 68 0.0 0.0 0.01 0.01 0.01 100
20260507181502 57 68 0.0 0.0 0.01 0.01 0.01 100
20260507181002 57 68 0.0 0.0 0.01 0.01 0.01 100
20260507180502 57 68 0.0 0.0 0.01 0.01 0.01 100
20260507180002 57 68 0.0 0.0 0.01 0.01 0.01 100
20260507175502 58 68 0.0 0.0 0.01 0.01 0.01 100
20260507175002 58 68 0.0 0.0 0.01 0.01 0.01 100
20260507174502 58 68 0.0 0.0 0.01 0.01 0.01 100
20260507174002 58 68 0.0 0.0 0.01 0.01 0.01 100
20260507173504 59 68 0.0 0.0 0.00 0.00 0.00 100
20260507173002 59 68 0.0 0.0 0.00 0.00 0.00 99
20260507172502 59 68 0.0 0.0 0.00 0.00 0.00 99
20260507172002 60 68 0.0 0.0 0.00 0.00 0.00 98
20260507171502 61 68 0.0 0.0 0.00 0.00 0.00 95
20260507171002 61 68 0.0 0.0 0.00 0.00 0.00 93
20260507170502 62 68 0.0 0.0 0.00 0.00 0.00 88
20260507170002 62 68 0.0 0.0 0.00 0.00 0.00 83
20260507165502 62 68 0.0 0.0 0.00 0.00 0.00 81
20260507165002 63 68 0.0 0.0 0.00 0.00 0.00 77
20260507164502 64 68 0.0 0.0 0.00 0.00 0.00 75
20260507164002 64 68 0.0 0.0 0.00 0.00 0.00 72
20260507163502 65 68 0.0 0.0 0.00 0.00 0.00 68
20260507163002 66 68 0.0 0.0 0.00 0.00 0.00 66
20260507162502 66 68 0.0 0.0 0.00 0.00 0.00 66
20260507162002 66 68 0.0 0.0 0.00 0.00 0.00 63
20260507161502 66 68 0.0 0.0 0.00 0.00 0.00 62
20260507161002 67 68 0.0 0.0 0.00 0.00 0.00 62
20260507160502 67 68 0.0 0.0 0.00 0.01 0.00 60
20260507160009 67 68 0.0 0.0 0.00 0.01 0.00 58
20260507155502 68 68 0.0 0.0 0.00 0.01 0.00 56
20260507155002 68 68 0.0 0.0 0.00 0.01 0.00 56
20260507154502 68 68 0.0 0.0 0.00 0.01 0.00 55
20260507154002 68 68 0.0 0.0 0.00 0.01 0.00 54
20260507153502 68 68 0.0 0.0 0.00 0.01 0.00 53
20260507153002 68 68 0.0 0.0 0.00 0.01 0.00 54
20260507152502 68 68 0.0 0.0 0.00 0.01 0.00 56
20260507152002 68 68 0.0 0.0 0.00 0.01 0.00 57
20260507151502 68 68 0.0 0.0 0.00 0.01 0.00 56
20260507151002 68 68 0.0 0.0 0.00 0.01 0.00 58
20260507150502 68 68 0.0 0.0 0.00 0.04 0.00 55
20260507150002 68 68 0.0 0.0 0.00 0.04 0.00 57
20260507145502 68 68 0.0 0.0 0.00 0.04 0.00 54
20260507145002 68 68 0.0 0.0 0.00 0.04 0.00 53
20260507144502 68 68 0.0 0.0 0.00 0.04 0.00 53
20260507144002 68 68 0.0 0.0 0.00 0.04 0.00 52
20260507143502 68 68 0.0 0.0 0.00 0.04 0.00 52
20260507143002 68 68 0.0 0.0 0.00 0.04 0.00 50
20260507142504 69 68 0.0 0.0 0.00 0.04 0.00 51
20260507142002 69 68 0.0 0.0 0.00 0.04 0.00 49
20260507141506 69 68 0.0 0.0 0.00 0.04 0.00 50
20260507141002 69 68 0.0 0.0 0.00 0.04 0.00 51
20260507140502 69 68 0.0 0.0 0.00 0.05 0.00 50
20260507135502 70 68 0.0 0.0 0.00 0.05 0.00 52
20260507135002 70 68 0.0 0.0 0.00 0.05 0.00 51
20260507134502 70 68 0.0 0.0 0.00 0.05 0.00 50
20260507134002 70 68 0.0 0.0 0.00 0.05 0.00 50
20260507133502 71 68 0.0 0.0 0.00 0.05 0.00 49
20260507133002 71 68 0.0 0.0 0.00 0.05 0.00 47
20260507132510 72 68 0.0 0.0 0.00 0.05 0.00 47
20260507132002 72 68 0.0 0.0 0.00 0.05 0.00 46
20260507131502 72 68 0.0 0.0 0.00 0.05 0.00 45
20260507131002 72 68 0.0 0.0 0.00 0.05 0.00 43
20260507130502 72 68 0.0 0.0 0.00 0.06 0.00 45
20260507130002 72 68 0.0 0.0 0.00 0.06 0.00 44
20260507125502 72 68 0.0 0.0 0.00 0.06 0.00 44
20260507125002 73 68 0.0 0.0 0.00 0.06 0.00 42
20260507124502 73 68 0.0 0.0 0.00 0.06 0.00 42
20260507124002 74 68 0.0 0.0 0.00 0.06 0.00 42
20260507123502 74 68 0.0 0.0 0.00 0.06 0.00 41
20260507123003 73 68 0.0 0.0 0.00 0.06 0.00 45
20260507122502 72 68 0.0 0.0 0.00 0.06 0.00 46
20260507122003 72 68 0.0 0.0 0.00 0.06 0.00 47
20260507121503 71 68 0.0 0.0 0.00 0.06 0.00 46
20260507121003 72 68 0.0 0.0 0.00 0.06 0.00 44
20260507120503 72 68 0.0 0.0 0.00 0.06 0.00 44
20260507120003 73 68 0.0 0.0 0.00 0.06 0.00 42
20260507115503 73 68 0.0 0.0 0.00 0.06 0.00 43
20260507115003 74 68 0.0 0.0 0.00 0.06 0.00 41
20260507114503 74 68 0.0 0.0 0.00 0.06 0.00 42
20260507114003 74 68 0.0 0.0 0.00 0.06 0.00 42
20260507113503 73 68 0.0 0.0 0.00 0.06 0.00 42
20260507113003 73 68 0.0 0.0 0.00 0.06 0.00 42
20260507112505 73 68 0.0 0.0 0.00 0.06 0.00 42
20260507112003 73 68 0.0 0.0 0.00 0.06 0.00 45
20260507111503 72 68 0.0 0.0 0.00 0.06 0.00 45
20260507111003 71 68 0.0 0.0 0.00 0.06 0.00 47
20260507110503 71 68 0.0 0.0 0.00 0.06 0.00 46
20260507110003 71 68 0.0 0.0 0.00 0.06 0.00 45
20260507105503 72 68 0.0 0.0 0.00 0.06 0.00 44
20260507105003 71 68 0.0 0.0 0.00 0.06 0.00 44
20260507104503 72 68 0.0 0.0 0.00 0.06 0.00 43
20260507104003 71 68 0.0 0.0 0.00 0.06 0.00 43
20260507103503 71 68 0.0 0.0 0.00 0.06 0.00 42
20260507103003 72 68 0.0 0.0 0.00 0.06 0.00 44
20260507102503 71 68 0.0 0.0 0.00 0.06 0.00 45
20260507102003 71 68 0.0 0.0 0.00 0.06 0.00 46
20260507101503 71 68 0.0 0.0 0.00 0.06 0.00 45
20260507101003 71 68 0.0 0.0 0.00 0.06 0.00 48
20260507100503 71 68 0.0 0.0 0.00 0.06 0.00 49
20260507100003 71 68 0.0 0.0 0.00 0.06 0.00 49
20260507095503 70 68 0.0 0.0 0.00 0.06 0.00 48
20260507095003 70 68 0.0 0.0 0.00 0.06 0.00 49
20260507094503 70 68 0.0 0.0 0.00 0.06 0.00 49
20260507094003 70 68 0.0 0.0 0.00 0.06 0.00 52
20260507093503 70 68 0.0 0.0 0.00 0.06 0.00 51
20260507093003 70 68 0.0 0.0 0.00 0.06 0.00 52
20260507092506 70 68 0.0 0.0 0.00 0.06 0.00 56
20260507092003 70 68 0.0 0.0 0.00 0.06 0.00 54
20260507091503 69 68 0.0 0.0 0.00 0.06 0.00 56
20260507091003 69 68 0.0 0.0 0.00 0.06 0.00 55
20260507090503 69 68 0.0 0.0 0.00 0.06 0.00 57
20260507090004 69 68 0.0 0.0 0.00 0.06 0.00 58
20260507085503 69 68 0.0 0.0 0.00 0.06 0.00 57
20260507085003 69 68 0.0 0.0 0.00 0.06 0.00 58
20260507084505 69 68 0.0 0.0 0.00 0.06 0.00 57
20260507084003 69 68 0.0 0.0 0.00 0.06 0.00 56
20260507083503 69 68 0.0 0.0 0.00 0.06 0.00 59
20260507083004 70 68 0.0 0.0 0.00 0.06 0.00 60
20260507082505 69 68 0.0 0.0 0.00 0.06 0.00 59
20260507082003 69 68 0.0 0.0 0.00 0.06 0.00 69
20260507081503 68 68 0.0 0.0 0.00 0.06 0.00 80
20260507081003 66 68 0.0 0.0 0.00 0.06 0.00 83
20260507080503 65 68 0.0 0.0 0.00 0.06 0.00 88
20260507080004 65 68 0.0 0.0 0.00 0.06 0.00 89
20260507075503 64 68 0.0 0.0 0.00 0.06 0.00 96
20260507075003 63 68 0.0 0.0 0.00 0.06 0.00 99
20260507074503 62 68 0.0 0.0 0.00 0.06 0.00 100
20260507074003 61 68 0.0 0.0 0.00 0.06 0.00 100
20260507073503 61 68 0.0 0.0 0.00 0.06 0.00 100
20260507073004 61 68 0.0 0.0 0.00 0.06 0.00 100
20260507072503 61 68 0.0 0.0 0.00 0.06 0.00 100
20260507072003 60 68 0.0 0.0 0.00 0.06 0.00 100
20260507071504 60 68 0.0 0.0 0.00 0.06 0.00 100
20260507071003 60 68 0.0 0.0 0.00 0.06 0.00 100
20260507070504 60 68 0.0 0.0 0.00 0.06 0.00 100
20260507070007 60 68 0.0 0.0 0.00 0.06 0.00 100
20260507065503 60 68 0.0 0.0 0.00 0.06 0.00 100
20260507065004 60 68 0.0 0.0 0.00 0.06 0.00 100
20260507064504 59 68 0.0 0.0 0.00 0.06 0.00 100
20260507064004 59 68 0.0 0.0 0.00 0.06 0.00 100
20260507063503 59 68 0.0 0.0 0.00 0.06 0.00 100
20260507063004 59 68 0.0 0.0 0.00 0.06 0.00 100
20260507062505 59 68 0.0 0.0 0.00 0.06 0.00 100
20260507062004 60 68 0.0 0.0 0.00 0.06 0.00 100
20260507061504 60 68 0.0 0.0 0.00 0.06 0.00 100
20260507061004 60 68 0.0 0.0 0.00 0.06 0.00 100
20260507060504 60 68 0.0 0.0 0.00 0.06 0.00 100
20260507060004 60 68 0.0 0.0 0.00 0.06 0.00 100
20260507055504 60 68 0.0 0.0 0.00 0.06 0.00 100
20260507055004 59 68 0.0 0.0 0.00 0.06 0.00 100
20260507054504 59 68 0.0 0.0 0.00 0.06 0.00 100
20260507054004 58 68 0.0 0.0 0.00 0.06 0.00 100
20260507053504 57 68 0.0 0.0 0.00 0.06 0.00 100
20260507053004 57 68 0.0 0.0 0.00 0.06 0.00 100
20260507052504 56 68 0.0 0.0 0.00 0.06 0.00 100
20260507052004 55 68 0.0 0.0 0.00 0.06 0.00 100
20260507051504 55 68 0.0 0.0 0.00 0.06 0.00 100
20260507051004 55 68 0.0 0.0 0.00 0.06 0.00 100
20260507050504 54 68 0.0 0.0 0.00 0.06 0.00 100
20260507050004 54 68 0.0 0.0 0.00 0.06 0.00 100
20260507045504 54 68 0.0 0.0 0.00 0.06 0.00 100
20260507045004 54 68 0.0 0.0 0.00 0.06 0.00 100
20260507044504 54 68 0.0 0.0 0.00 0.06 0.00 100
20260507044004 53 68 0.0 0.0 0.00 0.06 0.00 100
20260507043504 53 68 0.0 0.0 0.00 0.06 0.00 100
20260507043004 53 68 0.0 0.0 0.00 0.06 0.00 100
20260507042507 52 68 0.0 0.0 0.00 0.06 0.00 100
20260507042004 52 68 0.0 0.0 0.00 0.06 0.00 100
20260507041504 52 68 0.0 0.0 0.00 0.06 0.00 100
20260507041004 52 68 0.0 0.0 0.00 0.06 0.00 100
20260507040504 52 68 0.0 0.0 0.00 0.07 0.00 100
20260507040004 51 68 0.0 0.0 0.00 0.07 0.00 100
20260507035504 51 68 0.0 0.0 0.00 0.07 0.00 100
20260507035004 51 68 0.0 0.0 0.00 0.07 0.00 100
20260507034504 51 68 0.0 0.0 0.00 0.07 0.00 100
20260507034004 51 68 0.0 0.0 0.00 0.07 0.00 100
20260507033504 51 68 0.0 0.0 0.00 0.07 0.00 100
20260507033004 50 68 0.0 0.0 0.00 0.07 0.00 100
20260507032504 50 68 0.0 0.0 0.00 0.07 0.00 100
20260507032004 50 68 0.0 0.0 0.00 0.07 0.00 100
20260507031504 50 68 0.0 0.0 0.00 0.07 0.00 100
20260507031004 50 68 0.0 0.0 0.00 0.07 0.00 100
20260507030504 50 68 0.0 0.0 0.00 0.07 0.00 100
20260507030004 50 68 0.0 0.0 0.00 0.07 0.00 100
20260507025504 50 68 0.0 0.0 0.00 0.07 0.00 100
20260507025004 50 68 0.0 0.0 0.00 0.07 0.00 100
20260507024504 50 68 0.0 0.0 0.00 0.07 0.00 100
20260507024004 50 68 0.0 0.0 0.00 0.07 0.00 100
20260507023504 50 68 0.0 0.0 0.00 0.07 0.00 100
20260507023004 50 68 0.0 0.0 0.00 0.07 0.00 100
20260507022504 49 68 0.0 0.0 0.00 0.07 0.00 100
20260507022004 49 68 0.0 0.0 0.00 0.07 0.00 100
20260507021504 49 68 0.0 0.0 0.00 0.07 0.00 100
20260507021004 49 68 0.0 0.0 0.00 0.07 0.00 100
20260507020504 49 68 0.0 0.0 0.00 0.07 0.00 100
20260507020004 49 68 0.0 0.0 0.00 0.07 0.00 100
20260507015504 49 68 0.0 0.0 0.00 0.07 0.00 100
20260507015004 49 68 0.0 0.0 0.00 0.07 0.00 100
20260507014504 49 68 0.0 0.0 0.00 0.07 0.00 100
20260507014004 49 68 0.0 0.0 0.00 0.07 0.00 100
20260507013504 49 68 0.0 0.0 0.00 0.07 0.00 100
20260507013004 49 68 0.0 0.0 0.00 0.07 0.00 100
20260507012504 49 68 0.0 0.0 0.00 0.07 0.00 100
20260507012004 49 68 0.0 0.0 0.00 0.07 0.00 100
20260507011504 49 68 0.0 0.0 0.00 0.07 0.00 100
20260507011004 49 68 0.0 0.0 0.00 0.07 0.00 100
20260507010504 49 68 0.0 0.0 0.00 0.07 0.00 100
20260507010005 49 68 0.0 0.0 0.00 0.07 0.00 100
20260507005504 49 68 0.0 0.0 0.00 0.07 0.00 100
20260507005004 49 68 0.0 0.0 0.00 0.07 0.00 100
20260507004504 49 68 0.0 0.0 0.00 0.07 0.00 100
20260507004004 49 68 0.0 0.0 0.00 0.07 0.00 100
20260507003504 49 68 0.0 0.0 0.00 0.07 0.00 100
20260507003004 49 68 0.0 0.0 0.00 0.07 0.00 100
20260507002504 49 68 0.0 0.0 0.00 0.07 0.00 100
20260507002004 49 68 0.0 0.0 0.00 0.07 0.00 100
20260507001505 49 68 0.0 0.0 0.00 0.07 0.00 100
20260507001004 49 68 0.0 0.0 0.00 0.07 0.00 100
20260507000505 49 68 0.0 0.0 0.00 0.07 0.00 100
20260507000005 49 68 0.0 0.0 0.00 0.07 0.00 100
20260506235504 49 68 0.0 0.0 0.00 0.07 0.00 100
20260506235005 50 68 0.0 0.0 0.00 0.07 0.00 100
20260506234505 50 68 0.0 0.0 0.00 0.07 0.00 100
20260506234005 50 68 0.0 0.0 0.00 0.07 0.00 100
20260506233505 50 68 0.0 0.0 0.00 0.07 0.00 100
20260506233005 50 68 0.0 0.0 0.00 0.07 0.00 100
20260506232505 50 68 0.0 0.0 0.00 0.07 0.00 100
20260506232005 50 68 0.0 0.0 0.00 0.07 0.00 100
20260506231505 50 68 0.0 0.0 0.00 0.07 0.00 100
20260506231005 50 68 0.0 0.0 0.00 0.07 0.00 100
20260506230505 50 68 0.0 0.0 0.00 0.07 0.00 100
20260506230005 51 68 0.0 0.0 0.00 0.07 0.00 100
20260506225505 51 68 0.0 0.0 0.00 0.07 0.00 100
20260506225005 50 68 0.0 0.0 0.00 0.07 0.00 100
20260506224505 50 68 0.0 0.0 0.00 0.07 0.00 100
20260506224005 50 68 0.0 0.0 0.00 0.07 0.00 100
20260506223505 51 68 0.0 0.0 0.00 0.07 0.00 100
20260506223005 51 68 0.0 0.0 0.00 0.07 0.00 100
20260506222505 51 68 0.0 0.0 0.00 0.07 0.00 100
20260506222005 51 68 0.0 0.0 0.00 0.07 0.00 100
20260506221505 50 68 0.0 0.0 0.00 0.07 0.00 100
20260506221005 51 68 0.0 0.0 0.00 0.07 0.00 99
20260506220505 51 68 0.0 0.0 0.00 0.07 0.00 99
20260506220005 51 68 0.0 0.0 0.00 0.07 0.00 99
20260506215505 51 68 0.0 0.0 0.00 0.07 0.00 99
20260506215006 51 68 0.0 0.0 0.00 0.07 0.00 99
20260506214505 51 68 0.0 0.0 0.00 0.07 0.00 99
20260506214005 51 68 0.0 0.0 0.00 0.07 0.00 99
20260506213505 51 68 0.0 0.0 0.00 0.07 0.00 98
20260506213005 51 68 0.0 0.0 0.00 0.07 0.00 98
20260506212505 51 68 0.0 0.0 0.00 0.07 0.00 98
20260506212005 51 68 0.0 0.0 0.00 0.07 0.00 98
20260506211505 52 68 0.0 0.0 0.00 0.07 0.00 97
20260506211005 52 68 0.0 0.0 0.00 0.07 0.00 97
20260506210505 52 68 0.0 0.0 0.00 0.07 0.00 97
20260506193006 57 68 0.0 0.0 0.00 0.07 0.00 77
20260506192505 58 68 0.0 0.0 0.00 0.07 0.00 74
20260506192005 59 68 0.0 0.0 0.00 0.07 0.00 71